SB KEPS @ AMSAT $ORB13220.O Orbital Elements 13220.OSCAR
HR AMSAT ORBITAL ELEMENTS FOR OSCAR SATELLITES FROM WA5QGD FORT WORTH,TX August 8, 2013 BID: ORB13220.O TO ALL RADIO AMATEURS BT
Satellite: AO-07 Catalog number: 07530 Epoch time: 13220.85980541 Element set: 747 Inclination: 101.4366 deg RA of node: 208.4623 deg Eccentricity: 0.0011915 Arg of perigee: 182.7384 deg Mean anomaly: 239.4959 deg Mean motion: 12.53597299 rev/day Decay rate: -2.9e-07 rev/day^2 Epoch rev: 77238 Checksum: 327
Satellite: FO-29 Catalog number: 24278 Epoch time: 13220.11912409 Element set: 174 Inclination: 098.5506 deg RA of node: 271.7252 deg Eccentricity: 0.0350813 Arg of perigee: 029.7566 deg Mean anomaly: 003.6630 deg Mean motion: 13.53004184 rev/day Decay rate: -4.3e-07 rev/day^2 Epoch rev: 83833 Checksum: 286
Satellite: SO-33 Catalog number: 25509 Epoch time: 13220.85486019 Element set: 556 Inclination: 031.4342 deg RA of node: 129.4122 deg Eccentricity: 0.0351431 Arg of perigee: 259.0045 deg Mean anomaly: 169.9241 deg Mean motion: 14.29103750 rev/day Decay rate: 2.62e-06 rev/day^2 Epoch rev: 77243 Checksum: 279
Satellite: RS-22 Catalog number: 27939 Epoch time: 13220.85964314 Element set: 658 Inclination: 097.7996 deg RA of node: 045.9600 deg Eccentricity: 0.0014009 Arg of perigee: 024.9774 deg Mean anomaly: 335.2103 deg Mean motion: 14.64530750 rev/day Decay rate: 4.78e-06 rev/day^2 Epoch rev: 52700 Checksum: 314
Satellite: VO-52 Catalog number: 28650 Epoch time: 13220.85844574 Element set: 494 Inclination: 097.5680 deg RA of node: 236.7595 deg Eccentricity: 0.0027522 Arg of perigee: 107.4564 deg Mean anomaly: 351.9366 deg Mean motion: 14.84032350 rev/day Decay rate: 7.70e-06 rev/day^2 Epoch rev: 44689 Checksum: 333
Satellite: HO-68 Catalog number: 36122 Epoch time: 13220.72269976 Element set: 796 Inclination: 100.3016 deg RA of node: 276.4369 deg Eccentricity: 0.0007244 Arg of perigee: 232.7216 deg Mean anomaly: 127.3241 deg Mean motion: 13.16306024 rev/day Decay rate: -4.4e-07 rev/day^2 Epoch rev: 17532 Checksum: 278
/EX SB KEPS @ AMSAT $ORB13220.D Orbital Elements 13220.MICROS
HR AMSAT ORBITAL ELEMENTS FOR THE MICROSATS FROM WA5QGD FORT WORTH,TX August 8, 2013 BID: ORB13220.D TO ALL RADIO AMATEURS BT
Satellite: UO-11 Catalog number: 14781 Epoch time: 13220.20089247 Element set: 251 Inclination: 097.8982 deg RA of node: 280.7587 deg Eccentricity: 0.0010344 Arg of perigee: 118.2131 deg Mean anomaly: 242.0127 deg Mean motion: 14.80967817 rev/day Decay rate: 4.12e-06 rev/day^2 Epoch rev: 58163 Checksum: 289
Satellite: AO-16 Catalog number: 20439 Epoch time: 13220.83229946 Element set: 812 Inclination: 098.4725 deg RA of node: 159.6433 deg Eccentricity: 0.0010823 Arg of perigee: 009.8984 deg Mean anomaly: 062.8729 deg Mean motion: 14.32194319 rev/day Decay rate: 6.5e-07 rev/day^2 Epoch rev: 22977 Checksum: 325
Satellite: LO-19 Catalog number: 20442 Epoch time: 13220.78535601 Element set: 747 Inclination: 098.4422 deg RA of node: 161.2156 deg Eccentricity: 0.0011554 Arg of perigee: 359.6842 deg Mean anomaly: 032.9752 deg Mean motion: 14.32404148 rev/day Decay rate: 5.8e-07 rev/day^2 Epoch rev: 22996 Checksum: 298
Satellite: AO-27 Catalog number: 22825 Epoch time: 13220.76200044 Element set: 450 Inclination: 098.6207 deg RA of node: 164.2387 deg Eccentricity: 0.0009452 Arg of perigee: 130.4637 deg Mean anomaly: 260.1427 deg Mean motion: 14.29580336 rev/day Decay rate: 5.1e-07 rev/day^2 Epoch rev: 3614 Checksum: 269
Satellite: IO-26 Catalog number: 22826 Epoch time: 13220.82182811 Element set: 206 Inclination: 098.6149 deg RA of node: 164.5740 deg Eccentricity: 0.0010023 Arg of perigee: 124.3918 deg Mean anomaly: 269.4696 deg Mean motion: 14.29866347 rev/day Decay rate: 5.7e-07 rev/day^2 Epoch rev: 3628 Checksum: 307
Satellite: GO-32 Catalog number: 25397 Epoch time: 13220.84669198 Element set: 132 Inclination: 098.4203 deg RA of node: 186.3275 deg Eccentricity: 0.0002351 Arg of perigee: 123.2334 deg Mean anomaly: 319.6317 deg Mean motion: 14.23352626 rev/day Decay rate: 1.3e-07 rev/day^2 Epoch rev: 78343 Checksum: 287
Satellite: NO-44 Catalog number: 26931 Epoch time: 13220.84728183 Element set: 390 Inclination: 067.0522 deg RA of node: 123.7583 deg Eccentricity: 0.0007857 Arg of perigee: 273.1608 deg Mean anomaly: 152.6770 deg Mean motion: 14.29947278 rev/day Decay rate: 5.0e-08 rev/day^2 Epoch rev: 61895 Checksum: 322
Satellite: SO-50 Catalog number: 27607 Epoch time: 13219.85210784 Element set: 135 Inclination: 064.5568 deg RA of node: 106.8459 deg Eccentricity: 0.0039230 Arg of perigee: 145.9843 deg Mean anomaly: 284.9272 deg Mean motion: 14.73020688 rev/day Decay rate: 2.79e-06 rev/day^2 Epoch rev: 57132 Checksum: 324
Satellite: CO-55 Catalog number: 27844 Epoch time: 13220.79625669 Element set: 712 Inclination: 098.7021 deg RA of node: 229.1048 deg Eccentricity: 0.0010998 Arg of perigee: 098.4291 deg Mean anomaly: 345.8852 deg Mean motion: 14.21251077 rev/day Decay rate: 1.24e-06 rev/day^2 Epoch rev: 52420 Checksum: 311
Satellite: CO-57 Catalog number: 27848 Epoch time: 13220.02252181 Element set: 656 Inclination: 098.7107 deg RA of node: 227.8823 deg Eccentricity: 0.0010913 Arg of perigee: 105.8877 deg Mean anomaly: 288.1794 deg Mean motion: 14.20972843 rev/day Decay rate: 1.10e-06 rev/day^2 Epoch rev: 52402 Checksum: 305
Satellite: AO-51 Catalog number: 28375 Epoch time: 13220.80301890 Element set: 624 Inclination: 098.2057 deg RA of node: 174.1644 deg Eccentricity: 0.0082867 Arg of perigee: 216.1249 deg Mean anomaly: 175.3267 deg Mean motion: 14.41145970 rev/day Decay rate: 7.4e-07 rev/day^2 Epoch rev: 47891 Checksum: 312
Satellite: CP3 Catalog number: 31129 Epoch time: 13219.67198405 Element set: 522 Inclination: 097.9015 deg RA of node: 209.4143 deg Eccentricity: 0.0098494 Arg of perigee: 266.9221 deg Mean anomaly: 151.7691 deg Mean motion: 14.53757449 rev/day Decay rate: 3.43e-06 rev/day^2 Epoch rev: 33447 Checksum: 319
Satellite: CO-65 Catalog number: 32785 Epoch time: 13220.84446957 Element set: 705 Inclination: 097.7467 deg RA of node: 276.8687 deg Eccentricity: 0.0015754 Arg of perigee: 132.5591 deg Mean anomaly: 340.7464 deg Mean motion: 14.84022814 rev/day Decay rate: 6.52e-06 rev/day^2 Epoch rev: 28568 Checksum: 349
Satellite: PRISM Catalog number: 33493 Epoch time: 13220.79806089 Element set: 62 Inclination: 098.2225 deg RA of node: 019.4903 deg Eccentricity: 0.0018697 Arg of perigee: 026.0106 deg Mean anomaly: 334.2040 deg Mean motion: 14.86282698 rev/day Decay rate: 1.840e-05 rev/day^2 Epoch rev: 24573 Checksum: 297
Satellite: SOHLA-1 Catalog number: 33496 Epoch time: 13219.93500281 Element set: 115 Inclination: 098.1400 deg RA of node: 335.8328 deg Eccentricity: 0.0007541 Arg of perigee: 149.6709 deg Mean anomaly: 349.2368 deg Mean motion: 14.70339183 rev/day Decay rate: 2.18e-06 rev/day^2 Epoch rev: 24347 Checksum: 299
Satellite: SO-67 Catalog number: 35870 Epoch time: 13220.84825388 Element set: 313 Inclination: 097.1888 deg RA of node: 247.7252 deg Eccentricity: 0.0003489 Arg of perigee: 111.1054 deg Mean anomaly: 013.5081 deg Mean motion: 15.27647824 rev/day Decay rate: 4.189e-05 rev/day^2 Epoch rev: 21629 Checksum: 319
Satellite: TISAT-1 Catalog number: 36799 Epoch time: 13220.79795070 Element set: 333 Inclination: 098.0334 deg RA of node: 305.8032 deg Eccentricity: 0.0012984 Arg of perigee: 256.2649 deg Mean anomaly: 103.7111 deg Mean motion: 14.83518488 rev/day Decay rate: 1.279e-05 rev/day^2 Epoch rev: 16637 Checksum: 317
Satellite: STUDSAT Catalog number: 36801 Epoch time: 13218.92706685 Element set: 663 Inclination: 098.0453 deg RA of node: 307.5481 deg Eccentricity: 0.0010510 Arg of perigee: 235.9228 deg Mean anomaly: 179.2088 deg Mean motion: 14.88976266 rev/day Decay rate: 6.165e-05 rev/day^2 Epoch rev: 16626 Checksum: 325
Satellite: ALMASAT-1 Catalog number: 38078 Epoch time: 13220.66213447 Element set: 507 Inclination: 069.4698 deg RA of node: 079.0177 deg Eccentricity: 0.0683356 Arg of perigee: 079.7080 deg Mean anomaly: 288.0195 deg Mean motion: 14.27248859 rev/day Decay rate: 2.4243e-04 rev/day^2 Epoch rev: 7672 Checksum: 343
Satellite: XATCOBEO Catalog number: 38082 Epoch time: 13220.68796846 Element set: 390 Inclination: 069.4664 deg RA of node: 047.8406 deg Eccentricity: 0.0544543 Arg of perigee: 062.5884 deg Mean anomaly: 302.9539 deg Mean motion: 14.62899226 rev/day Decay rate: 5.6570e-04 rev/day^2 Epoch rev: 7758 Checksum: 354
Satellite: SOMP Catalog number: 39135 Epoch time: 13220.68093977 Element set: 235 Inclination: 064.8786 deg RA of node: 043.7016 deg Eccentricity: 0.0007633 Arg of perigee: 201.7531 deg Mean anomaly: 231.3498 deg Mean motion: 15.00596519 rev/day Decay rate: 2.689e-05 rev/day^2 Epoch rev: 1670 Checksum: 304
Satellite: CUBEBUG-1 Catalog number: 39153 Epoch time: 13220.85986889 Element set: 294 Inclination: 098.0710 deg RA of node: 296.6028 deg Eccentricity: 0.0016812 Arg of perigee: 275.5643 deg Mean anomaly: 084.3642 deg Mean motion: 14.76537514 rev/day Decay rate: 6.63e-06 rev/day^2 Epoch rev: 1545 Checksum: 324
Satellite: ESTCUBE-1 Catalog number: 39161 Epoch time: 13220.74780072 Element set: 260 Inclination: 098.1271 deg RA of node: 298.7254 deg Eccentricity: 0.0009399 Arg of perigee: 313.4197 deg Mean anomaly: 046.6218 deg Mean motion: 14.69051214 rev/day Decay rate: 5.83e-06 rev/day^2 Epoch rev: 1371 Checksum: 293
/EX SB KEPS @ AMSAT $ORB13220.W Orbital Elements 13220.WEATHER
HR AMSAT ORBITAL ELEMENTS FOR WEATHER SATELLITES FROM WA5QGD FORT WORTH,TX August 8, 2013 BID: ORB13220.W TO ALL RADIO AMATEURS BT
Satellite: NOAA-10 Catalog number: 16969 Epoch time: 13220.11637058 Element set: 454 Inclination: 098.5434 deg RA of node: 246.8177 deg Eccentricity: 0.0013474 Arg of perigee: 094.9489 deg Mean anomaly: 301.2183 deg Mean motion: 14.27656208 rev/day Decay rate: 2.7e-07 rev/day^2 Epoch rev: 39935 Checksum: 322
